PSCTB SBBV-SWBC

Flight info

Callsign PSCTB
Flight time 1h 40m
Altitude 6000
Route NEVDU
Aircraft C208/L-SDFGR/C

Departure

Time 2026-05-04 21:57
Airport Atlas Brasil Cantanhede International Airport (SBBV)

Arrival

Time 2026-05-04 23:38
Airport Barcelos Airport (SWBC)
Time Latitude Longitude Altitude Speed Heading
2026-05-04 21:46 2.84137 -60.69377 278 ft 0 kts 152°
2026-05-04 21:50 2.84139 -60.69378 278 ft 3 kts 152°
2026-05-04 21:50 2.84160 -60.69389 278 ft 3 kts 152°
2026-05-04 21:50 2.84181 -60.69399 278 ft 3 kts 158°
2026-05-04 21:50 2.84201 -60.69398 278 ft 2 kts 242°
2026-05-04 21:51 2.84203 -60.69394 278 ft 0 kts 243°
2026-05-04 21:54 2.84195 -60.69408 278 ft 7 kts 243°
2026-05-04 21:54 2.84220 -60.69464 278 ft 13 kts 307°
2026-05-04 21:54 2.84179 -60.69564 278 ft 21 kts 250°
2026-05-04 21:55 2.84110 -60.69692 278 ft 22 kts 240°
2026-05-04 21:55 2.84027 -60.69849 278 ft 29 kts 245°
2026-05-04 21:55 2.83970 -60.69969 278 ft 19 kts 238°
2026-05-04 21:55 2.83994 -60.70052 278 ft 13 kts 329°
2026-05-04 21:56 2.84085 -60.70057 279 ft 13 kts 23°
2026-05-04 21:56 2.84144 -60.69959 278 ft 31 kts 62°
2026-05-04 21:56 2.84318 -60.69623 276 ft 76 kts 62°
2026-05-04 21:56 2.84599 -60.69055 320 ft 101 kts 66°
2026-05-04 21:57 2.84895 -60.68411 531 ft 101 kts 61°
2026-05-04 21:57 2.85314 -60.67869 783 ft 96 kts 76°
2026-05-04 21:57 2.85115 -60.67228 762 ft 120 kts 140°
2026-05-04 21:57 2.84312 -60.66974 990 ft 120 kts 184°
2026-05-04 21:58 2.83607 -60.67304 1425 ft 109 kts 224°
2026-05-04 21:58 2.83356 -60.67972 1811 ft 102 kts 274°
2026-05-04 21:58 2.83705 -60.68567 2000 ft 114 kts 324°
2026-05-04 21:58 2.84509 -60.68783 2137 ft 125 kts
2026-05-04 21:59 2.85260 -60.68404 2374 ft 122 kts 52°
2026-05-04 21:59 2.85554 -60.67629 2605 ft 122 kts 92°
2026-05-04 21:59 2.85293 -60.66893 2813 ft 125 kts 127°
2026-05-04 21:59 2.84530 -60.66445 3037 ft 132 kts 167°
2026-05-04 22:00 2.83629 -60.66588 3243 ft 139 kts 205°
2026-05-04 22:00 2.82959 -60.67287 3454 ft 143 kts 244°
2026-05-04 22:00 2.82826 -60.68263 3659 ft 143 kts 282°
2026-05-04 22:00 2.83286 -60.69117 3869 ft 140 kts 321°
2026-05-04 22:01 2.83880 -60.69878 4064 ft 144 kts 287°
2026-05-04 22:01 2.83688 -60.70831 4266 ft 145 kts 228°
2026-05-04 22:01 2.82816 -60.71218 4476 ft 139 kts 171°
2026-05-04 22:01 2.82059 -60.70763 4692 ft 129 kts 123°
2026-05-04 22:02 2.81433 -60.70115 4893 ft 132 kts 139°
2026-05-04 22:02 2.80593 -60.69725 5101 ft 137 kts 163°
2026-05-04 22:02 2.79639 -60.69583 5306 ft 139 kts 167°
2026-05-04 22:02 2.78678 -60.69453 5514 ft 140 kts 168°
2026-05-04 22:03 2.77703 -60.69336 5719 ft 141 kts 168°
2026-05-04 22:03 2.76728 -60.69216 5918 ft 141 kts 168°
2026-05-04 22:03 2.75769 -60.69101 6116 ft 142 kts 168°
2026-05-04 22:03 2.74788 -60.68989 6312 ft 142 kts 168°
2026-05-04 22:04 2.73806 -60.68873 6512 ft 142 kts 169°
2026-05-04 22:04 2.72821 -60.68758 6711 ft 143 kts 168°
2026-05-04 22:04 2.71838 -60.68640 6916 ft 142 kts 168°
2026-05-04 22:04 2.70852 -60.68523 7110 ft 143 kts 168°
2026-05-04 22:05 2.69910 -60.68414 7302 ft 144 kts 169°
2026-05-04 22:05 2.68916 -60.68298 7502 ft 144 kts 168°
2026-05-04 22:05 2.67921 -60.68173 7703 ft 144 kts 168°
2026-05-04 22:05 2.66927 -60.68051 7900 ft 144 kts 169°
2026-05-04 22:06 2.65917 -60.67933 7989 ft 152 kts 169°
2026-05-04 22:06 2.64831 -60.67804 8006 ft 162 kts 169°
2026-05-04 22:06 2.63684 -60.67673 8001 ft 169 kts 169°
2026-05-04 22:06 2.62496 -60.67536 7999 ft 174 kts 170°
2026-05-04 22:07 2.61282 -60.67395 7998 ft 177 kts 170°
2026-05-04 22:07 2.60058 -60.67251 8001 ft 177 kts 170°
2026-05-04 22:07 2.58831 -60.67108 7997 ft 178 kts 170°
2026-05-04 22:07 2.57600 -60.66963 7999 ft 178 kts 169°
2026-05-04 22:08 2.56374 -60.66818 8000 ft 180 kts 170°
2026-05-04 22:08 2.55131 -60.66673 8000 ft 180 kts 170°
2026-05-04 22:08 2.53890 -60.66526 8000 ft 180 kts 170°
2026-05-04 22:08 2.52642 -60.66380 7998 ft 180 kts 170°
2026-05-04 22:09 2.51396 -60.66234 8000 ft 180 kts 170°
2026-05-04 22:09 2.50152 -60.66087 7999 ft 180 kts 170°
2026-05-04 22:09 2.48905 -60.65939 7998 ft 180 kts 170°
2026-05-04 22:09 2.47654 -60.65793 7998 ft 180 kts 170°
2026-05-04 22:10 2.46406 -60.65647 8000 ft 181 kts 170°
2026-05-04 22:10 2.45157 -60.65499 7997 ft 181 kts 170°
2026-05-04 22:10 2.43922 -60.65353 7994 ft 181 kts 170°
2026-05-04 22:10 2.42672 -60.65206 7995 ft 181 kts 170°
2026-05-04 22:11 2.41415 -60.65058 7993 ft 182 kts 170°
2026-05-04 22:11 2.40159 -60.64911 7993 ft 181 kts 170°
2026-05-04 22:11 2.38906 -60.64762 7989 ft 181 kts 170°
2026-05-04 22:11 2.37655 -60.64615 7988 ft 181 kts 170°
2026-05-04 22:12 2.36405 -60.64468 7989 ft 181 kts 170°
2026-05-04 22:12 2.35153 -60.64322 7988 ft 181 kts 170°
2026-05-04 22:12 2.33918 -60.64176 7989 ft 181 kts 170°
2026-05-04 22:12 2.32661 -60.64028 7990 ft 183 kts 170°
2026-05-04 22:13 2.31398 -60.63879 7990 ft 182 kts 170°
2026-05-04 22:13 2.30152 -60.63734 7990 ft 182 kts 170°
2026-05-04 22:13 2.28897 -60.63585 7986 ft 182 kts 170°
2026-05-04 22:13 2.27643 -60.63437 7987 ft 181 kts 170°
2026-05-04 22:14 2.26390 -60.63291 7988 ft 181 kts 170°
2026-05-04 22:14 2.25140 -60.63143 7987 ft 180 kts 170°
2026-05-04 22:14 2.23904 -60.62997 7985 ft 180 kts 170°
2026-05-04 22:14 2.22659 -60.62851 7984 ft 180 kts 170°
2026-05-04 22:15 2.21833 -60.62754 7983 ft 180 kts 170°
2026-05-04 22:15 2.20583 -60.62607 7986 ft 180 kts 170°
2026-05-04 22:15 2.19331 -60.62473 7983 ft 183 kts 175°
2026-05-04 22:15 2.18091 -60.62755 7980 ft 186 kts 204°
2026-05-04 22:16 2.17021 -60.63476 7987 ft 186 kts 216°
2026-05-04 22:16 2.15973 -60.64251 7982 ft 188 kts 215°
2026-05-04 22:16 2.14570 -60.65261 7987 ft 187 kts 215°
2026-05-04 22:16 2.13861 -60.65776 7982 ft 186 kts 215°
2026-05-04 22:17 2.12812 -60.66541 7988 ft 187 kts 215°
2026-05-04 22:17 2.11762 -60.67305 7982 ft 186 kts 215°
2026-05-04 22:17 2.10727 -60.68057 7977 ft 186 kts 215°
2026-05-04 22:17 2.09665 -60.68829 7979 ft 187 kts 215°
2026-05-04 22:18 2.08618 -60.69592 7980 ft 186 kts 215°
2026-05-04 22:18 2.07585 -60.70343 7980 ft 185 kts 215°
2026-05-04 22:18 2.06581 -60.71072 7991 ft 185 kts 215°
2026-05-04 22:18 2.05541 -60.71829 7992 ft 185 kts 215°
2026-05-04 22:19 2.04500 -60.72586 7995 ft 185 kts 215°
2026-05-04 22:19 2.03456 -60.73345 7992 ft 186 kts 215°
2026-05-04 22:19 2.02414 -60.74104 7993 ft 185 kts 215°
2026-05-04 22:19 2.01371 -60.74863 7994 ft 186 kts 215°
2026-05-04 22:20 2.00321 -60.75625 7995 ft 186 kts 215°
2026-05-04 22:20 1.99294 -60.76373 7995 ft 185 kts 215°
2026-05-04 22:20 1.98255 -60.77129 7994 ft 185 kts 215°
2026-05-04 22:20 1.97214 -60.77886 7994 ft 186 kts 214°
2026-05-04 22:21 1.96165 -60.78649 7996 ft 186 kts 214°
2026-05-04 22:21 1.95129 -60.79404 7997 ft 186 kts 215°
2026-05-04 22:21 1.94079 -60.80167 7993 ft 186 kts 214°
2026-05-04 22:21 1.93030 -60.80929 7993 ft 186 kts 214°
2026-05-04 22:22 1.91986 -60.81689 7994 ft 185 kts 214°
2026-05-04 22:22 1.90942 -60.82447 7995 ft 185 kts 214°
2026-05-04 22:22 1.89897 -60.83207 7993 ft 186 kts 214°
2026-05-04 22:22 1.88853 -60.83966 7993 ft 186 kts 214°
2026-05-04 22:23 1.87809 -60.84726 7994 ft 186 kts 214°
2026-05-04 22:23 1.86765 -60.85486 7994 ft 186 kts 214°
2026-05-04 22:23 1.85718 -60.86246 7993 ft 186 kts 214°
2026-05-04 22:23 1.84674 -60.87006 7993 ft 185 kts 214°
2026-05-04 22:24 1.83643 -60.87756 7994 ft 185 kts 214°
2026-05-04 22:24 1.82599 -60.88514 7995 ft 185 kts 214°
2026-05-04 22:24 1.81569 -60.89263 7994 ft 186 kts 214°
2026-05-04 22:24 1.80523 -60.90025 7993 ft 186 kts 214°
2026-05-04 22:25 1.79476 -60.90785 7992 ft 186 kts 214°
2026-05-04 22:25 1.78427 -60.91548 7992 ft 186 kts 214°
2026-05-04 22:25 1.77381 -60.92309 7992 ft 186 kts 214°
2026-05-04 22:25 1.76334 -60.93070 7993 ft 186 kts 214°
2026-05-04 22:26 1.75287 -60.93830 7990 ft 185 kts 214°
2026-05-04 22:26 1.74259 -60.94578 7992 ft 185 kts 214°
2026-05-04 22:26 1.73216 -60.95339 7995 ft 186 kts 214°
2026-05-04 22:26 1.72160 -60.96103 7996 ft 189 kts 214°
2026-05-04 22:27 1.71096 -60.96877 7993 ft 188 kts 214°
2026-05-04 22:27 1.70040 -60.97645 7993 ft 187 kts 214°
2026-05-04 22:27 1.69007 -60.98397 7993 ft 187 kts 214°
2026-05-04 22:27 1.67949 -60.99166 7994 ft 188 kts 214°
2026-05-04 22:28 1.66892 -60.99934 7993 ft 188 kts 214°
2026-05-04 22:28 1.65838 -61.00701 7993 ft 187 kts 214°
2026-05-04 22:28 1.64784 -61.01467 7993 ft 187 kts 214°
2026-05-04 22:28 1.63733 -61.02232 7993 ft 187 kts 214°
2026-05-04 22:29 1.62683 -61.02996 7994 ft 187 kts 214°
2026-05-04 22:29 1.61629 -61.03761 7992 ft 187 kts 214°
2026-05-04 22:29 1.60575 -61.04527 7992 ft 187 kts 214°
2026-05-04 22:29 1.59523 -61.05292 7994 ft 187 kts 214°
2026-05-04 22:30 1.58469 -61.06056 7993 ft 187 kts 214°
2026-05-04 22:30 1.57425 -61.06815 7993 ft 188 kts 214°
2026-05-04 22:30 1.56371 -61.07583 7993 ft 187 kts 214°
2026-05-04 22:30 1.55317 -61.08349 7994 ft 187 kts 214°
2026-05-04 22:31 1.54262 -61.09117 7993 ft 187 kts 214°
2026-05-04 22:31 1.53209 -61.09882 7993 ft 187 kts 214°
2026-05-04 22:31 1.52159 -61.10646 7992 ft 187 kts 214°
2026-05-04 22:31 1.51106 -61.11410 7992 ft 187 kts 214°
2026-05-04 22:32 1.50056 -61.12174 7992 ft 187 kts 214°
2026-05-04 22:32 1.49007 -61.12936 7992 ft 186 kts 214°
2026-05-04 22:32 1.47971 -61.13689 7992 ft 187 kts 214°
2026-05-04 22:32 1.46922 -61.14451 7992 ft 186 kts 214°
2026-05-04 22:33 1.45874 -61.15214 7992 ft 186 kts 214°
2026-05-04 22:33 1.44825 -61.15975 7992 ft 186 kts 214°
2026-05-04 22:33 1.43777 -61.16736 7992 ft 186 kts 214°
2026-05-04 22:33 1.42743 -61.17492 7992 ft 186 kts 214°
2026-05-04 22:34 1.41687 -61.18256 7995 ft 187 kts 213°
2026-05-04 22:34 1.40634 -61.19022 7994 ft 187 kts 214°
2026-05-04 22:34 1.39581 -61.19787 7993 ft 187 kts 214°
2026-05-04 22:34 1.38523 -61.20555 7992 ft 187 kts 214°
2026-05-04 22:35 1.37472 -61.21320 7992 ft 187 kts 214°
2026-05-04 22:35 1.36418 -61.22086 7992 ft 187 kts 214°
2026-05-04 22:35 1.35425 -61.22806 7992 ft 187 kts 214°
2026-05-04 22:35 1.34373 -61.23572 7992 ft 187 kts 214°
2026-05-04 22:36 1.33322 -61.24335 7992 ft 187 kts 214°
2026-05-04 22:36 1.32269 -61.25100 7991 ft 187 kts 214°
2026-05-04 22:36 1.31219 -61.25863 7992 ft 187 kts 214°
2026-05-04 22:36 1.30168 -61.26627 7991 ft 187 kts 214°
2026-05-04 22:37 1.29117 -61.27391 7991 ft 187 kts 214°
2026-05-04 22:37 1.28063 -61.28157 7993 ft 187 kts 213°
2026-05-04 22:37 1.27007 -61.28925 7998 ft 189 kts 214°
2026-05-04 22:37 1.25936 -61.29700 8001 ft 192 kts 214°
2026-05-04 22:38 1.24856 -61.30488 8003 ft 192 kts 214°
2026-05-04 22:38 1.23778 -61.31271 8007 ft 194 kts 213°
2026-05-04 22:38 1.22686 -61.32064 8008 ft 194 kts 214°
2026-05-04 22:38 1.21590 -61.32862 8008 ft 195 kts 214°
2026-05-04 22:39 1.20501 -61.33648 8006 ft 193 kts 214°
2026-05-04 22:39 1.19430 -61.34429 8006 ft 193 kts 214°
2026-05-04 22:39 1.18347 -61.35217 8005 ft 192 kts 214°
2026-05-04 22:39 1.17262 -61.36007 8005 ft 193 kts 214°
2026-05-04 22:40 1.16175 -61.36797 8003 ft 193 kts 213°
2026-05-04 22:40 1.15054 -61.37515 8001 ft 191 kts 209°
2026-05-04 22:40 1.13948 -61.38247 8000 ft 189 kts 213°
2026-05-04 22:40 1.12882 -61.39015 7998 ft 188 kts 214°
2026-05-04 22:41 1.11826 -61.39788 7996 ft 188 kts 214°
2026-05-04 22:41 1.10765 -61.40556 7995 ft 188 kts 213°
2026-05-04 22:41 1.09710 -61.41322 7994 ft 187 kts 214°
2026-05-04 22:41 1.08655 -61.42087 7993 ft 187 kts 214°
2026-05-04 22:42 1.07601 -61.42852 7993 ft 187 kts 214°
2026-05-04 22:42 1.06546 -61.43616 7993 ft 187 kts 213°
2026-05-04 22:42 1.05504 -61.44371 7993 ft 187 kts 214°
2026-05-04 22:42 1.04448 -61.45137 7993 ft 188 kts 214°
2026-05-04 22:43 1.03393 -61.45903 7993 ft 188 kts 213°
2026-05-04 22:43 1.02335 -61.46670 7993 ft 187 kts 214°
2026-05-04 22:43 1.01278 -61.47435 7993 ft 187 kts 214°
2026-05-04 22:43 1.00223 -61.48200 7993 ft 187 kts 214°
2026-05-04 22:44 0.99168 -61.48964 7993 ft 187 kts 213°
2026-05-04 22:44 0.98109 -61.49732 7993 ft 187 kts 214°
2026-05-04 22:44 0.97058 -61.50495 7993 ft 187 kts 214°
2026-05-04 22:44 0.96003 -61.51260 7993 ft 187 kts 213°
2026-05-04 22:45 0.94960 -61.52016 7993 ft 187 kts 214°
2026-05-04 22:45 0.92901 -61.53508 7993 ft 187 kts 214°
2026-05-04 22:45 0.91846 -61.54273 7993 ft 187 kts 214°
2026-05-04 22:46 0.90792 -61.55037 7993 ft 187 kts 214°
2026-05-04 22:46 0.89739 -61.55801 7993 ft 187 kts 213°
2026-05-04 22:46 0.88687 -61.56563 7993 ft 187 kts 214°
2026-05-04 22:46 0.87634 -61.57326 7993 ft 187 kts 214°
2026-05-04 22:47 0.86581 -61.58089 7993 ft 187 kts 214°
2026-05-04 22:47 0.85529 -61.58852 7993 ft 187 kts 214°
2026-05-04 22:47 0.84472 -61.59619 7994 ft 187 kts 214°
2026-05-04 22:47 0.83417 -61.60384 7994 ft 187 kts 213°
2026-05-04 22:48 0.82360 -61.61147 7994 ft 187 kts 213°
2026-05-04 22:48 0.81305 -61.61912 7994 ft 187 kts 214°
2026-05-04 22:48 0.80310 -61.62634 7993 ft 187 kts 214°
2026-05-04 22:48 0.79256 -61.63401 7993 ft 188 kts 214°
2026-05-04 22:49 0.78211 -61.64157 7994 ft 188 kts 213°
2026-05-04 22:49 0.77153 -61.64922 7994 ft 187 kts 213°
2026-05-04 22:49 0.76101 -61.65685 7994 ft 187 kts 214°
2026-05-04 22:49 0.75051 -61.66448 7993 ft 187 kts 213°
2026-05-04 22:50 0.73999 -61.67211 7993 ft 187 kts 214°
2026-05-04 22:50 0.72944 -61.67973 7993 ft 187 kts 213°
2026-05-04 22:50 0.71891 -61.68737 7993 ft 187 kts 214°
2026-05-04 22:50 0.70840 -61.69499 7993 ft 186 kts 213°
2026-05-04 22:51 0.69789 -61.70262 7993 ft 187 kts 214°
2026-05-04 22:51 0.68739 -61.71023 7993 ft 187 kts 214°
2026-05-04 22:51 0.67681 -61.71788 7993 ft 187 kts 213°
2026-05-04 22:51 0.66629 -61.72550 7993 ft 187 kts 214°
2026-05-04 22:52 0.65573 -61.73316 7993 ft 187 kts 214°
2026-05-04 22:52 0.64520 -61.74080 8003 ft 187 kts 214°
2026-05-04 22:52 0.63468 -61.74843 8003 ft 187 kts 214°
2026-05-04 22:52 0.62413 -61.75607 8003 ft 187 kts 213°
2026-05-04 22:53 0.61357 -61.76371 8004 ft 188 kts 214°
2026-05-04 22:53 0.60301 -61.77137 8004 ft 188 kts 214°
2026-05-04 22:53 0.59245 -61.77903 8003 ft 187 kts 214°
2026-05-04 22:53 0.58191 -61.78668 8004 ft 187 kts 214°
2026-05-04 22:54 0.57134 -61.79433 8003 ft 188 kts 214°
2026-05-04 22:54 0.56091 -61.80188 8003 ft 187 kts 214°
2026-05-04 22:54 0.55039 -61.80952 8004 ft 187 kts 214°
2026-05-04 22:54 0.53987 -61.81714 8005 ft 188 kts 214°
2026-05-04 22:55 0.52922 -61.82485 8010 ft 190 kts 214°
2026-05-04 22:55 0.51843 -61.83266 8011 ft 192 kts 214°
2026-05-04 22:55 0.50760 -61.84053 8015 ft 193 kts 214°
2026-05-04 22:55 0.49670 -61.84842 8018 ft 193 kts 214°
2026-05-04 22:56 0.48582 -61.85632 8017 ft 193 kts 214°
2026-05-04 22:56 0.47498 -61.86417 8018 ft 193 kts 214°
2026-05-04 22:56 0.46408 -61.87208 8017 ft 193 kts 214°
2026-05-04 22:56 0.45319 -61.87997 8016 ft 193 kts 214°
2026-05-04 22:57 0.44247 -61.88772 8012 ft 191 kts 214°
2026-05-04 22:57 0.43175 -61.89547 8010 ft 190 kts 214°
2026-05-04 22:57 0.42108 -61.90324 8009 ft 189 kts 214°
2026-05-04 22:57 0.41042 -61.91094 8009 ft 189 kts 212°
2026-05-04 22:58 0.39966 -61.91844 8007 ft 189 kts 213°
2026-05-04 22:58 0.38904 -61.92622 8005 ft 189 kts 214°
2026-05-04 22:58 0.37848 -61.93403 8005 ft 189 kts 214°
2026-05-04 22:58 0.36788 -61.94175 8004 ft 188 kts 214°
2026-05-04 22:59 0.35732 -61.94942 8003 ft 188 kts 213°
2026-05-04 22:59 0.34677 -61.95704 8002 ft 187 kts 214°
2026-05-04 22:59 0.33623 -61.96471 8002 ft 187 kts 214°
2026-05-04 22:59 0.32568 -61.97236 8004 ft 187 kts 214°
2026-05-04 23:00 0.31512 -61.97999 8003 ft 187 kts 213°
2026-05-04 23:00 0.30459 -61.98763 8001 ft 187 kts 214°
2026-05-04 23:00 0.29418 -61.99519 8004 ft 187 kts 214°
2026-05-04 23:00 0.28363 -62.00284 8003 ft 187 kts 214°
2026-05-04 23:01 0.27306 -62.01048 8002 ft 188 kts 213°
2026-05-04 23:01 0.26247 -62.01816 8004 ft 188 kts 214°
2026-05-04 23:01 0.25192 -62.02583 8002 ft 187 kts 214°
2026-05-04 23:01 0.24134 -62.03348 8005 ft 187 kts 213°
2026-05-04 23:02 0.23078 -62.04112 8003 ft 187 kts 214°
2026-05-04 23:02 0.22026 -62.04876 8002 ft 187 kts 214°
2026-05-04 23:02 0.20982 -62.05634 8002 ft 187 kts 214°
2026-05-04 23:02 0.19925 -62.06397 8003 ft 188 kts 214°
2026-05-04 23:03 0.18868 -62.07164 8003 ft 188 kts 214°
2026-05-04 23:03 0.17810 -62.07930 8004 ft 188 kts 213°
2026-05-04 23:03 0.16749 -62.08697 8006 ft 188 kts 214°
2026-05-04 23:03 0.15692 -62.09468 8006 ft 188 kts 214°
2026-05-04 23:04 0.14632 -62.10235 8008 ft 188 kts 214°
2026-05-04 23:04 0.13574 -62.11000 8003 ft 187 kts 213°
2026-05-04 23:04 0.12874 -62.11507 8003 ft 187 kts 214°
2026-05-04 23:04 0.11821 -62.12271 8003 ft 187 kts 214°
2026-05-04 23:05 0.10766 -62.13035 8004 ft 187 kts 213°
2026-05-04 23:05 0.09351 -62.14061 8002 ft 187 kts 214°
2026-05-04 23:05 0.08654 -62.14566 8002 ft 187 kts 213°
2026-05-04 23:05 0.07601 -62.15331 8002 ft 187 kts 214°
2026-05-04 23:06 0.06544 -62.16096 8002 ft 187 kts 214°
2026-05-04 23:06 0.05489 -62.16860 8003 ft 187 kts 213°
2026-05-04 23:06 0.04434 -62.17622 8003 ft 187 kts 214°
2026-05-04 23:06 0.03382 -62.18386 8004 ft 187 kts 213°
2026-05-04 23:07 0.02327 -62.19150 8015 ft 187 kts 214°
2026-05-04 23:07 0.01277 -62.19912 8030 ft 186 kts 214°
2026-05-04 23:07 0.00228 -62.20673 8031 ft 187 kts 214°
2026-05-04 23:07 -0.00812 -62.21434 8030 ft 187 kts 216°
2026-05-04 23:08 -0.01855 -62.22215 8031 ft 187 kts 214°
2026-05-04 23:08 -0.02917 -62.22974 8031 ft 188 kts 213°
2026-05-04 23:08 -0.03982 -62.23730 8029 ft 188 kts 213°
2026-05-04 23:08 -0.05045 -62.24494 8032 ft 188 kts 214°
2026-05-04 23:09 -0.06105 -62.25263 8032 ft 188 kts 214°
2026-05-04 23:09 -0.07164 -62.26030 8031 ft 188 kts 214°
2026-05-04 23:09 -0.08222 -62.26797 8031 ft 188 kts 214°
2026-05-04 23:09 -0.09279 -62.27562 8031 ft 188 kts 214°
2026-05-04 23:10 -0.10335 -62.28327 8031 ft 188 kts 214°
2026-05-04 23:10 -0.11393 -62.29094 8031 ft 187 kts 214°
2026-05-04 23:10 -0.12432 -62.29846 8031 ft 187 kts 214°
2026-05-04 23:10 -0.13487 -62.30611 8031 ft 187 kts 214°
2026-05-04 23:11 -0.14542 -62.31376 8031 ft 187 kts 214°
2026-05-04 23:11 -0.15598 -62.32139 8030 ft 187 kts 214°
2026-05-04 23:11 -0.16656 -62.32907 8030 ft 187 kts 214°
2026-05-04 23:11 -0.17711 -62.33673 8030 ft 187 kts 214°
2026-05-04 23:12 -0.18768 -62.34438 8031 ft 188 kts 214°
2026-05-04 23:12 -0.19823 -62.35203 8031 ft 187 kts 214°
2026-05-04 23:12 -0.20879 -62.35968 8030 ft 187 kts 214°
2026-05-04 23:12 -0.21934 -62.36732 8031 ft 187 kts 214°
2026-05-04 23:13 -0.22991 -62.37498 8031 ft 187 kts 214°
2026-05-04 23:13 -0.24045 -62.38261 8031 ft 187 kts 214°
2026-05-04 23:13 -0.25098 -62.39026 8031 ft 187 kts 214°
2026-05-04 23:13 -0.26142 -62.39781 8029 ft 187 kts 214°
2026-05-04 23:14 -0.27196 -62.40545 8031 ft 187 kts 214°
2026-05-04 23:14 -0.28251 -62.41309 8029 ft 187 kts 214°
2026-05-04 23:14 -0.29306 -62.42074 8031 ft 187 kts 214°
2026-05-04 23:14 -0.30362 -62.42839 8030 ft 188 kts 213°
2026-05-04 23:15 -0.31423 -62.43605 8034 ft 189 kts 214°
2026-05-04 23:15 -0.32487 -62.44377 8033 ft 190 kts 214°
2026-05-04 23:15 -0.33555 -62.45160 8037 ft 190 kts 214°
2026-05-04 23:15 -0.34623 -62.45929 8036 ft 189 kts 213°
2026-05-04 23:16 -0.35691 -62.46701 8032 ft 190 kts 214°
2026-05-04 23:16 -0.36771 -62.47484 8039 ft 191 kts 214°
2026-05-04 23:16 -0.37848 -62.48264 8036 ft 191 kts 214°
2026-05-04 23:16 -0.38910 -62.49034 8032 ft 191 kts 214°
2026-05-04 23:17 -0.39982 -62.49811 8037 ft 190 kts 214°
2026-05-04 23:17 -0.41049 -62.50585 8036 ft 189 kts 214°
2026-05-04 23:17 -0.42110 -62.51355 8035 ft 188 kts 214°
2026-05-04 23:17 -0.43169 -62.52122 8034 ft 188 kts 214°
2026-05-04 23:18 -0.44229 -62.52890 8031 ft 188 kts 214°
2026-05-04 23:18 -0.45288 -62.53657 8033 ft 188 kts 214°
2026-05-04 23:18 -0.46346 -62.54423 8031 ft 188 kts 214°
2026-05-04 23:18 -0.47403 -62.55189 8031 ft 188 kts 214°
2026-05-04 23:19 -0.48459 -62.55955 8032 ft 188 kts 214°
2026-05-04 23:19 -0.49515 -62.56720 8032 ft 187 kts 214°
2026-05-04 23:19 -0.50572 -62.57486 8032 ft 187 kts 214°
2026-05-04 23:19 -0.51625 -62.58249 8032 ft 187 kts 214°
2026-05-04 23:20 -0.52681 -62.59014 8033 ft 187 kts 214°
2026-05-04 23:20 -0.53739 -62.59781 8035 ft 188 kts 214°
2026-05-04 23:20 -0.54803 -62.60552 8033 ft 190 kts 214°
2026-05-04 23:20 -0.55860 -62.61318 8033 ft 190 kts 214°
2026-05-04 23:21 -0.56928 -62.62093 8036 ft 190 kts 214°
2026-05-04 23:21 -0.57995 -62.62867 8040 ft 189 kts 214°
2026-05-04 23:21 -0.59055 -62.63636 8038 ft 188 kts 213°
2026-05-04 23:21 -0.60121 -62.64405 8037 ft 189 kts 214°
2026-05-04 23:22 -0.61186 -62.65177 8035 ft 189 kts 214°
2026-05-04 23:22 -0.62257 -62.65953 8039 ft 189 kts 214°
2026-05-04 23:22 -0.63318 -62.66725 8032 ft 189 kts 214°
2026-05-04 23:22 -0.64379 -62.67493 8035 ft 188 kts 214°
2026-05-04 23:23 -0.65427 -62.68252 8033 ft 188 kts 214°
2026-05-04 23:23 -0.66485 -62.69019 8034 ft 188 kts 214°
2026-05-04 23:23 -0.67540 -62.69783 8031 ft 188 kts 214°
2026-05-04 23:23 -0.68599 -62.70551 8034 ft 188 kts 214°
2026-05-04 23:24 -0.69655 -62.71317 8033 ft 188 kts 214°
2026-05-04 23:24 -0.70712 -62.72082 8034 ft 187 kts 214°
2026-05-04 23:24 -0.71768 -62.72850 8035 ft 187 kts 214°
2026-05-04 23:24 -0.72826 -62.73615 8036 ft 187 kts 214°
2026-05-04 23:25 -0.73881 -62.74379 8037 ft 187 kts 214°
2026-05-04 23:25 -0.74937 -62.75145 8034 ft 187 kts 214°
2026-05-04 23:25 -0.75992 -62.75909 8034 ft 188 kts 214°
2026-05-04 23:25 -0.77037 -62.76667 8036 ft 188 kts 214°
2026-05-04 23:26 -0.78094 -62.77433 8036 ft 188 kts 214°
2026-05-04 23:26 -0.79151 -62.78199 8036 ft 188 kts 214°
2026-05-04 23:26 -0.80206 -62.78964 8035 ft 188 kts 214°
2026-05-04 23:26 -0.81263 -62.79729 8028 ft 188 kts 214°
2026-05-04 23:27 -0.82356 -62.80520 7785 ft 196 kts 213°
2026-05-04 23:27 -0.83449 -62.81306 7537 ft 192 kts 214°
2026-05-04 23:27 -0.84524 -62.82088 7283 ft 190 kts 214°
2026-05-04 23:27 -0.85590 -62.82865 7031 ft 189 kts 214°
2026-05-04 23:28 -0.86656 -62.83639 6654 ft 193 kts 214°
2026-05-04 23:28 -0.87763 -62.84442 6161 ft 199 kts 214°
2026-05-04 23:28 -0.88881 -62.85251 5668 ft 202 kts 215°
2026-05-04 23:28 -0.90016 -62.86075 5135 ft 203 kts 215°
2026-05-04 23:29 -0.91167 -62.86908 4520 ft 205 kts 215°
2026-05-04 23:29 -0.92270 -62.87704 3909 ft 185 kts 215°
2026-05-04 23:29 -0.93245 -62.88412 3623 ft 165 kts 215°
2026-05-04 23:29 -0.94143 -62.89067 3321 ft 157 kts 215°
2026-05-04 23:30 -0.95027 -62.89707 3013 ft 154 kts 215°
2026-05-04 23:30 -0.95873 -62.90321 2803 ft 147 kts 215°
2026-05-04 23:30 -0.96692 -62.90915 2592 ft 144 kts 215°
2026-05-04 23:30 -0.97496 -62.91498 2384 ft 141 kts 215°
2026-05-04 23:31 -0.98294 -62.92067 2180 ft 141 kts 211°
2026-05-04 23:31 -0.99222 -62.92189 1970 ft 137 kts 158°
2026-05-04 23:31 -0.99834 -62.91528 1763 ft 132 kts 102°
2026-05-04 23:31 -0.99629 -62.90672 1571 ft 131 kts 54°
2026-05-04 23:32 -0.99258 -62.89870 1373 ft 131 kts 82°
2026-05-04 23:32 -0.99172 -62.88962 1182 ft 131 kts 84°
2026-05-04 23:32 -0.99075 -62.88050 988 ft 132 kts 84°
2026-05-04 23:32 -0.98981 -62.87169 938 ft 123 kts 84°
2026-05-04 23:33 -0.98894 -62.86348 927 ft 116 kts 83°
2026-05-04 23:33 -0.98811 -62.85565 924 ft 111 kts 84°
2026-05-04 23:33 -0.98730 -62.84808 930 ft 109 kts 84°
2026-05-04 23:33 -0.98650 -62.84063 926 ft 107 kts 83°
2026-05-04 23:34 -0.98572 -62.83329 928 ft 106 kts 83°
2026-05-04 23:34 -0.98217 -62.82731 927 ft 105 kts 22°
2026-05-04 23:34 -0.97567 -62.82896 929 ft 103 kts 305°
2026-05-04 23:34 -0.97477 -62.83591 927 ft 102 kts 270°
2026-05-04 23:35 -0.97425 -62.84287 1048 ft 103 kts 275°
2026-05-04 23:35 -0.97377 -62.85013 1133 ft 103 kts 274°
2026-05-04 23:35 -0.97407 -62.85720 1081 ft 96 kts 263°
2026-05-04 23:35 -0.97488 -62.86357 994 ft 90 kts 261°
2026-05-04 23:36 -0.97566 -62.86933 907 ft 81 kts 266°
2026-05-04 23:36 -0.97610 -62.87484 804 ft 80 kts 264°
2026-05-04 23:36 -0.97678 -62.88042 696 ft 81 kts 265°
2026-05-04 23:36 -0.97740 -62.88602 613 ft 81 kts 261°
2026-05-04 23:37 -0.97812 -62.89158 509 ft 81 kts 265°
2026-05-04 23:37 -0.97864 -62.89724 399 ft 82 kts 263°
2026-05-04 23:37 -0.97930 -62.90289 299 ft 81 kts 263°
2026-05-04 23:37 -0.97996 -62.90847 195 ft 81 kts 261°
2026-05-04 23:38 -0.98062 -62.91397 114 ft 75 kts 262°
2026-05-04 23:38 -0.98117 -62.91842 109 ft 46 kts 262°
2026-05-04 23:38 -0.98147 -62.92039 109 ft 21 kts 260°
2026-05-04 23:38 -0.98162 -62.92163 109 ft 11 kts 264°
2026-05-04 23:39 -0.98109 -62.92204 108 ft 14 kts 352°
2026-05-04 23:39 -0.98038 -62.92218 107 ft 5 kts 324°
2026-05-04 23:39 -0.98006 -62.92244 107 ft 7 kts 53°
2026-05-04 23:39 -0.98003 -62.92232 107 ft 0 kts 91°